TimeCST,TemperatureF,Dew PointF,Humidity,Sea Level PressureIn,VisibilityMPH,Wind Direction,Wind SpeedMPH,Gust SpeedMPH,PrecipitationIn,Events,Conditions,WindDirDegrees,DateUTC
12:53 AM,34.0,28.9,82,30.36,10.0,Calm,Calm,-,N/A,,Clear,0,2012-11-17 06:53:00
1:53 AM,33.1,28.9,85,30.36,10.0,Calm,Calm,-,N/A,,Clear,0,2012-11-17 07:53:00
2:53 AM,34.0,28.9,82,30.36,10.0,Calm,Calm,-,N/A,,Clear,0,2012-11-17 08:53:00
3:53 AM,32.0,28.0,85,30.36,10.0,Calm,Calm,-,N/A,,Clear,0,2012-11-17 09:53:00
4:53 AM,28.9,28.0,96,30.37,10.0,Calm,Calm,-,N/A,,Clear,0,2012-11-17 10:53:00
5:53 AM,30.0,28.0,92,30.38,10.0,Calm,Calm,-,N/A,,Clear,0,2012-11-17 11:53:00
6:53 AM,30.0,27.0,88,30.39,10.0,Calm,Calm,-,N/A,,Clear,0,2012-11-17 12:53:00
7:53 AM,33.1,30.0,89,30.40,10.0,Calm,Calm,-,N/A,,Clear,0,2012-11-17 13:53:00
8:53 AM,44.1,34.0,68,30.43,10.0,Calm,Calm,-,N/A,,Clear,0,2012-11-17 14:53:00
9:53 AM,55.0,32.0,42,30.42,10.0,South,8.1,-,N/A,,Clear,180,2012-11-17 15:53:00
10:53 AM,57.0,30.9,37,30.41,10.0,South,8.1,-,N/A,,Clear,180,2012-11-17 16:53:00
11:53 AM,60.1,30.9,33,30.38,10.0,Variable,6.9,-,N/A,,Clear,0,2012-11-17 17:53:00
12:53 PM,62.1,30.0,30,30.36,10.0,SSE,9.2,-,N/A,,Clear,150,2012-11-17 18:53:00
1:53 PM,64.0,28.9,27,30.33,10.0,SSE,11.5,-,N/A,,Clear,160,2012-11-17 19:53:00
2:53 PM,64.9,27.0,24,30.31,10.0,SE,10.4,-,N/A,,Clear,130,2012-11-17 20:53:00
3:53 PM,64.0,28.9,27,30.30,10.0,SE,6.9,-,N/A,,Clear,140,2012-11-17 21:53:00
4:53 PM,61.0,28.9,30,30.30,10.0,SE,8.1,-,N/A,,Clear,130,2012-11-17 22:53:00
5:53 PM,55.9,30.0,37,30.30,10.0,ESE,3.5,-,N/A,,Clear,120,2012-11-17 23:53:00
6:53 PM,51.1,30.0,44,30.30,10.0,Calm,Calm,-,N/A,,Clear,0,2012-11-18 00:53:00
7:53 PM,50.0,30.9,48,30.30,10.0,Calm,Calm,-,N/A,,Clear,0,2012-11-18 01:53:00
8:53 PM,46.0,30.0,54,30.30,10.0,Calm,Calm,-,N/A,,Clear,0,2012-11-18 02:53:00
9:53 PM,43.0,28.9,58,30.30,10.0,Calm,Calm,-,N/A,,Clear,0,2012-11-18 03:53:00
10:53 PM,42.1,28.9,60,30.30,10.0,Calm,Calm,-,N/A,,Clear,0,2012-11-18 04:53:00
11:53 PM,39.9,30.0,68,30.29,10.0,Calm,Calm,-,N/A,,Clear,0,2012-11-18 05:53:00